Weather History for Nome, AK

Change the Weather History Date:

Tuesday, September 4, 2012

  Actual Average Record
Temperature  
Mean Temperature 44 °F 47 °F  
Max Temperature 48 °F 53 °F 70 °F (1996)
Min Temperature 40 °F 41 °F 25 °F (1927)
Degree Days  
Heating Degree Days 21 18  
Month to date heating degree days 80 70  
Since 1 July heating degree days 985 934  
Cooling Degree Days 0    
Month to date cooling degree days 0  
Year to date cooling degree days 0  
Moisture  
Dew Point 41 °F    
Average Humidity 0    
Maximum Humidity 0    
Minimum Humidity 0    
Precipitation  
Precipitation 0.30 in 0.10 in 0.98 in (2000)
Month to date precipitation 1.10 0.37  
Year to date precipitation 15.78 10.82  
Snow  
Snow 0.00 in 0.00 in T in (1987)
Month to date snowfall 0.0 0.0  
Since 1 July snowfall 0.0 0.0  
Since 1 September snowfall 0.0 0.0  
Snow Depth 0.00 in    
Sea Level Pressure  
Sea Level Pressure 29.28 in    
Wind  
Wind Speed 15 mph (SE)    
Max Wind Speed 25 mph    
Max Gust Speed 31 mph    
Visibility 8 miles    
Events Rain    
T = Trace of Precipitation, MM = Missing Value Source: NWS Daily Summary

Daily Weather History Graph

Daily Weather History Graph

Search for Another Location

Airport:

Trip Planner

Search our weather history database for the weather conditions in past years. The results will help you decide how hot, cold, wet, or windy it might be!

Date:

Astronomy

Sep. 04, 2012 Rise Set
Actual Time 7:54 AM AKDT 10:05 PM AKDT
Civil Twilight 7:01 AM AKDT 10:57 PM AKDT
Nautical Twilight 5:49 AM AKDT 12:07 AM AKDT
Astronomical Twilight 3:48 AM AKDT 1:59 AM AKDT
Moon 9:57 PM AKDT (9/4) 2:16 PM AKDT (9/4)
Length of Visible Light 15h 56m
Length of Day
14h 11m
Waning Gibbous, 82% of the Moon is Illuminated
Sep 4
Waning Gibbous
Sep 8
Last Quarter
Sep 15
New
Sep 22
First Quarter
Sep 29
Full

Hourly Weather History & Observations

Time (AKDT) Temp. Windchill Dew Point Humidity Pressure Visibility Wind Dir Wind Speed Gust Speed Precip Events Conditions
12:08 AM 42.8 °F 34.3 °F 42.8 °F 100% 29.23 in 6.0 mi SW 19.6 mph - N/A   Overcast
12:53 AM 42.1 °F 32.8 °F 42.1 °F 100% 29.27 in 9.0 mi SW 21.9 mph - N/A   Overcast
1:20 AM 42.8 °F 34.0 °F 41.0 °F 93% 29.29 in 8.0 mi SW 20.7 mph - N/A   Overcast
1:53 AM 41.0 °F 31.6 °F 39.9 °F 96% 29.30 in 10.0 mi SW 20.7 mph - N/A   Overcast
2:53 AM 39.9 °F 30.2 °F 39.0 °F 97% 29.34 in 8.0 mi SSW 20.7 mph - N/A   Overcast
3:53 AM 39.9 °F 31.1 °F 39.0 °F 97% 29.37 in 7.0 mi SSW 17.3 mph 25.3 mph N/A   Overcast
4:37 AM 39.2 °F 29.8 °F 37.4 °F 93% 29.39 in 10.0 mi SSW 18.4 mph - 0.00 in   Overcast
4:53 AM 39.9 °F 31.4 °F 37.9 °F 93% 29.39 in 10.0 mi SSW 16.1 mph - 0.00 in   Overcast
5:53 AM 39.9 °F 32.1 °F 37.9 °F 93% 29.40 in 10.0 mi SSW 13.8 mph - 0.00 in   Overcast
6:23 AM 41.0 °F 33.5 °F 37.4 °F 87% 29.42 in 9.0 mi South 13.8 mph - N/A   Mostly Cloudy
6:34 AM 39.2 °F 31.2 °F 39.2 °F 100% 29.42 in 9.0 mi South 13.8 mph - N/A   Overcast
6:53 AM 39.9 °F 32.9 °F 37.9 °F 93% 29.42 in 9.0 mi South 11.5 mph - N/A   Overcast
7:53 AM 42.1 °F 35.2 °F 37.0 °F 82% 29.41 in 10.0 mi South 12.7 mph 20.7 mph N/A   Overcast
8:04 AM 42.8 °F 36.6 °F 37.4 °F 81% 29.40 in 10.0 mi SSE 11.5 mph - N/A   Overcast
8:53 AM 43.0 °F 38.2 °F 39.0 °F 86% 29.40 in 10.0 mi SSE 8.1 mph - N/A   Overcast
9:53 AM 44.1 °F 38.6 °F 42.1 °F 93% 29.39 in 10.0 mi ESE 10.4 mph - N/A   Overcast
10:53 AM 45.0 °F 38.2 °F 42.1 °F 90% 29.38 in 10.0 mi ESE 15.0 mph - N/A   Overcast
11:53 AM 44.1 °F 38.6 °F 43.0 °F 96% 29.36 in 10.0 mi East 10.4 mph - 0.00 in Rain Light Rain
12:01 PM 44.6 °F 38.8 °F 42.8 °F 93% 29.35 in 7.0 mi East 11.5 mph - 0.00 in Rain Light Rain
12:14 PM 44.6 °F 37.8 °F 42.8 °F 93% 29.34 in 7.0 mi ESE 15.0 mph - 0.00 in Rain Light Rain
12:53 PM 43.0 °F 36.8 °F 41.0 °F 93% 29.33 in 3.0 mi ESE 11.5 mph - 0.04 in Rain Rain
1:14 PM 44.6 °F 38.1 °F 42.8 °F 93% 29.32 in 8.0 mi East 13.8 mph 21.9 mph 0.02 in Rain Light Rain
1:53 PM 44.1 °F 36.8 °F 41.0 °F 89% 29.30 in 7.0 mi East 16.1 mph - 0.04 in Rain Light Rain
2:53 PM 44.1 °F 37.4 °F 42.1 °F 93% 29.26 in 8.0 mi East 13.8 mph - 0.03 in Rain Light Rain
3:41 PM 44.6 °F 37.2 °F 42.8 °F 93% 29.23 in 6.0 mi ENE 17.3 mph 21.9 mph 0.02 in Rain Light Rain
3:53 PM 45.0 °F 38.5 °F 43.0 °F 93% 29.23 in 7.0 mi East 13.8 mph 23.0 mph 0.03 in Rain Light Rain
4:37 PM 44.6 °F 36.6 °F 42.8 °F 93% 29.20 in 6.0 mi East 19.6 mph 27.6 mph 0.05 in Rain Light Rain
4:53 PM 45.0 °F 36.6 °F 41.0 °F 86% 29.20 in 8.0 mi East 21.9 mph 29.9 mph 0.06 in Rain Light Rain
5:53 PM 45.0 °F 36.6 °F 43.0 °F 93% 29.18 in 9.0 mi East 21.9 mph 28.8 mph 0.00 in Rain Light Rain
6:24 PM 44.6 °F 36.1 °F 42.8 °F 93% 29.15 in 10.0 mi East 21.9 mph 29.9 mph 0.00 in   Overcast
6:53 PM 45.0 °F 37.1 °F 41.0 °F 86% 29.14 in 10.0 mi East 19.6 mph 25.3 mph 0.00 in   Overcast
7:53 PM 44.1 °F 36.8 °F 42.1 °F 93% 29.11 in 8.0 mi East 16.1 mph 24.2 mph 0.00 in Rain Light Rain
8:53 PM 44.1 °F 37.1 °F 44.1 °F 100% 29.08 in 10.0 mi East 15.0 mph - 0.00 in Rain Light Rain
9:53 PM 44.1 °F 37.4 °F 43.0 °F 96% 29.08 in 3.0 mi ENE 13.8 mph 21.9 mph 0.03 in Rain Light Rain
10:53 PM 45.0 °F 38.2 °F 44.1 °F 97% 29.05 in 10.0 mi ENE 15.0 mph - 0.03 in   Overcast
11:53 PM 46.9 °F - 46.0 °F 97% 29.04 in 10.0 mi ENE 11.5 mph - 0.03 in Rain Light Rain